Location: Goodsell Observatory
(44.4617°N, 93.1522°W)
Time: 17:29:30
(UTC-05:00)

Daily predictions for brighter satellites

Satellite Brightness Start Highest point End
(mag) Time Altitude Azimuth Time Altitude Azimuth Time Altitude Azimuth
Cosmos 990 Rocket 4.1 19:53:21 10° SSW 19:58:36 87° ESE 20:03:52 10° NNE
BREEZE-M DEB (TANK) 4.4 19:56:10 10° SSE 19:58:40 17° ESE 20:03:11 10° ENE
Cosmos 2123 Rocket 4.1 19:52:31 10° N 19:58:51 66° E 20:05:04 10° SSE
ATLAS 5 CENTAUR R/B 3.1 19:56:30 10° SSE 19:59:39 18° ESE 20:02:57 10° ENE
SJ-6B 2.7 19:59:36 10° SSE 20:03:20 88° W 20:07:07 10° NNW
Cosmos 2297 4.2 20:04:53 10° S 20:10:04 37° ESE 20:15:19 10° NE
Envisat 4.2 20:06:51 10° ESE 20:10:46 23° ENE 20:14:41 10° NNE
H-2A R/B 2.9 20:08:14 10° SSE 20:12:03 56° ENE 20:15:56 10° N
Resurs 1-3 3.7 20:13:04 10° SSE 20:17:21 55° ENE 20:21:39 10° N
FengYun 1-2 T 4.3 20:12:47 10° SSE 20:18:22 88° ENE 20:24:03 10° NNW
Cosmos 1125 Rocket 3.7 20:14:27 10° S 20:19:24 47° ESE 20:24:24 10° NNE
Cosmos 1408 Rocket 4.2 20:15:38 10° N 20:19:46 35° ENE 20:23:51 10° SE
Cosmos 1048 Rocket 4.1 20:15:43 10° NNW 20:20:45 54° ENE 20:25:45 10° SE
Cosmos 2082 Rocket 2.4 20:15:48 10° NNW 20:21:26 57° ENE 20:27:00 10° SE
CZ-2C R/B 0.8 20:21:55 10° N 20:24:07 83° W 20:25:50 10° S
SeaSat 1 2.7 20:21:48 10° SSE 20:26:43 73° WSW 20:31:40 10° NNW
HJ-1C 4.1 20:26:01 10° S 20:29:23 58° W 20:32:47 10° NNW
Timation 2 Rocket 4.1 20:23:34 10° NNW 20:29:51 57° ENE 20:35:50 10° SE
Cosmos 1758 3.3 20:26:10 10° S 20:30:05 61° E 20:34:03 10° NNE
ALOS 2.9 20:27:05 10° S 20:31:41 59° W 20:36:20 10° NNW
Cosmos 1447 Rocket 4.4 20:30:17 10° N 20:36:26 72° E 20:42:33 10° SSE
Cosmos 1953 2.3 20:33:11 10° S 20:37:13 68° E 20:41:16 10° NNE
Cosmos 1271 Rocket 3.5 20:34:11 10° SSE 20:37:47 33° E 20:41:26 10° NNE
Helios 1B rocket 2.9 20:33:59 10° NNE 20:37:51 37° E 20:41:40 10° SSE
Cosmos 1459 Rocket 4.4 20:32:23 10° SSE 20:38:06 39° E 20:43:46 10° NNE
Cosmos 482 Debris 3.5 20:38:03 10° NW 20:39:45 29° NNE 20:40:02 27° NE
BREEZE-M DEB (TANK) 3.1 20:37:51 10° NW 20:40:00 31° NNE 20:41:29 17° ENE
Okean 3 Rocket 4.0 20:35:49 10° NNW 20:40:11 66° W 20:44:33 10° S
OE (NEXTSAT) 4.4 20:39:16 10° W 20:42:53 83° NNW 20:45:21 19° ENE
Cosmos 1076 Rocket 3.4 20:40:08 10° N 20:44:24 89° ENE 20:48:39 10° S
SAR-Lupe-4 3.5 20:41:16 10° SSE 20:44:49 64° ENE 20:48:23 10° N
Cosmos 2173 Rocket 4.3 20:39:19 10° SSE 20:45:06 44° E 20:50:59 10° NNE
Abrixas 4.1 20:42:50 10° W 20:45:16 25° SW 20:46:58 15° SSE
Meteor 1-29 3.6 20:42:57 10° NNE 20:46:09 33° E 20:49:21 10° SSE
Cosmos 1939 Rocket 3.7 20:44:14 20° ESE 20:46:28 34° ENE 20:50:14 10° N
Lacrosse 4 Rocket 4.3 20:44:57 10° W 20:47:37 17° NW 20:50:17 10° N
Cosmos 1674 2.6 20:44:02 10° N 20:47:49 66° E 20:51:30 11° SSE
YAOGAN 6 4.2 20:47:36 18° ENE 20:47:57 19° ENE 20:50:36 10° NNE
Spot 1 4.3 20:43:48 10° SSE 20:48:28 71° ENE 20:53:26 10° N
COSMOS 2487 2.6 20:50:20 10° NNW 20:53:54 76° WSW 20:56:56 14° SSE
CZ-4B DEB 2.8 20:52:56 29° SE 20:54:13 51° ENE 20:57:16 10° N
Lacrosse 5 rocket 1.1 20:52:38 10° NW 20:56:36 68° NE 20:58:14 31° ESE
Helios 1A 2.9 20:53:18 10° SSE 20:57:28 85° ENE 21:01:41 10° NNW
Cosmos 2251 Rocket 4.2 20:54:07 10° N 20:59:04 38° ENE 21:01:25 26° ESE
Cosmos 1818 4.4 20:54:09 10° NW 20:59:22 48° WSW 21:04:32 10° S
ISS -3.4 20:58:54 10° SSW 21:01:59 40° SE 21:02:04 40° SE
Cosmos 1269 Rocket 4.4 20:57:11 10° NNW 21:02:26 67° WSW 21:07:39 10° S
SAR-Lupe-1 4.0 21:00:49 16° SSE 21:03:36 86° WSW 21:07:12 10° NNW
USA 186 2.0 21:04:49 27° SSW 21:05:37 41° W 21:07:46 10° NNW
Cosmos 1766 Rocket 3.7 21:01:21 10° NNW 21:05:50 76° W 21:10:18 10° S
GP-B 3.1 21:03:47 10° S 21:08:13 83° W 21:12:41 10° N
Meteor 1-4 Rocket 3.8 21:06:09 10° SSW 21:09:25 41° WNW 21:12:46 10° N
CZ-3B DEB 3.4 21:00:45 10° WSW 21:10:03 48° NNW 21:14:26 10° NE
Cosmos 372 Rocket 4.0 21:06:56 10° SSW 21:12:03 81° WNW 21:17:15 10° NNE
Cosmos-2242 2.9 21:09:07 10° S 21:13:22 88° WNW 21:17:39 10° N
Resurs 01 Rocket 3.5 21:12:04 10° SSW 21:15:58 31° W 21:19:55 10° NNW
Cosmos 158 Rocket 4.4 21:10:56 10° NNW 21:15:59 60° WSW 21:20:47 12° S
Cosmos 1626 4.5 21:13:53 10° NNE 21:14:33 12° NE 21:14:33 12° NE
Cosmos 2016 Rocket 4.0 21:10:59 10° SSE 21:17:01 56° E 21:23:01 10° NNE
USA 215 3.5 21:13:24 10° ENE 21:19:37 45° SE 21:25:47 10° SSW
Cosmos 1725 Rocket 4.2 21:23:26 30° SE 21:26:00 45° E 21:31:51 10° NNE
Cosmos 1356 Rocket 3.3 21:22:54 10° N 21:26:59 59° ENE 21:27:16 57° E
Cosmos 1833 Rocket 3.4 21:21:49 10° NW 21:27:14 50° WSW 21:31:55 14° S
Lacrosse 5 3.5 21:23:26 10° W 21:28:00 33° NNW 21:32:35 10° NE
Cosmos 1470 3.4 21:27:29 10° SSW 21:31:24 55° W 21:35:19 10° N
SPOT 5 3.6 21:33:35 38° E 21:34:06 39° ENE 21:39:00 10° N
Cosmos 2100 Rocket 4.2 21:28:14 10° SSW 21:34:33 74° W 21:40:57 10° N
Cosmos 1733 4.0 21:30:59 10° SSW 21:34:45 52° WNW 21:38:35 10° N
Cosmos 494 Rocket 3.8 21:31:42 10° NNW 21:36:51 78° ENE 21:38:10 50° SE
Cosmos 1743 Rocket 3.7 21:32:43 10° NNW 21:37:10 74° W 21:38:55 36° S
Cosmos 1867 4.4 21:31:52 10° SW 21:37:10 51° NW 21:42:32 10° NNE
Cosmos 2278 Rocket 4.4 21:32:42 10° WSW 21:37:20 25° NW 21:42:02 10° N
Cosmos 1500 Rocket 3.4 21:34:11 10° N 21:38:32 84° E 21:39:09 65° SSE
H-2A R/B 4.3 21:40:22 12° NE 21:40:22 12° NE 21:41:05 10° NNE
SL-08 R/B 4.4 21:33:42 16° S 21:38:56 70° E 21:45:20 10° NNE
Cosmos 1340 Rocket 3.8 21:37:08 10° NNW 21:40:59 44° W 21:42:57 24° SSW
ATLAS 5 CENTAUR R/B 2.2 21:38:59 10° SW 21:43:41 64° NW 21:48:51 10° NNE
Tsikada Rocket 4.0 21:37:47 10° N 21:43:59 64° E 21:45:44 46° SE
Terra 3.9 21:47:55 15° NE 21:47:55 15° NE 21:49:29 10° NNE
Cosmos 1184 Rocket 3.7 21:45:24 10° NNW 21:48:24 49° WNW 21:48:24 49° WNW
Envisat 3.8 21:45:57 18° SSW 21:49:28 49° W 21:54:24 10° NNW
USA 267 3.8 21:50:51 33° ENE 21:53:17 48° NNE 21:59:30 10° NW
Cosmos 1802 Rocket 4.4 21:51:05 10° SSW 21:57:10 63° W 22:03:18 10° N
Cosmos 2058 3.4 21:54:29 10° N 21:57:45 53° N 21:57:45 53° N
H-2A R/B 3.0 22:02:14 35° NE 22:02:14 35° NE 22:06:18 10° N
ERS-1 Rocket 3.2 22:03:18 51° SSW 22:04:23 65° WSW 22:09:25 10° NNW
Cosmos 2082 Rocket 4.3 22:00:45 10° NW 22:05:03 23° W 22:09:20 10° SSW
SL-14 R/B 4.2 22:02:26 10° NNW 22:05:54 45° W 22:05:54 45° W
Cosmos 2151 3.5 22:05:26 10° NNW 22:09:14 57° WNW 22:09:14 57° WNW
Meteor 1-11 4.4 22:04:37 10° NNW 22:10:10 66° W 22:11:31 49° SSW
MetOp-A 4.0 22:10:20 77° S 22:10:42 85° WSW 22:16:06 10° NNW
ARGOS 3.1 22:14:09 73° NE 22:14:09 73° NE 22:19:13 10° N
Cosmos 1816 Rocket 4.4 22:09:13 10° N 22:15:26 90° WSW 22:16:19 68° S
USA 245 4.2 22:24:40 85° SW 22:24:46 86° WSW 22:31:06 10° NNW
Cosmos 2233 Rocket 3.8 22:31:21 83° NNE 22:31:21 83° NNE 22:37:18 10° N
Meteor 2-1 Rocket 4.4 22:33:34 68° W 22:33:49 69° WNW 22:39:28 10° N
Lacrosse 5 rocket 4.0 22:33:02 10° W 22:33:58 13° W 22:33:58 13° W
SPOT 1/Viking Rocket 4.2 22:46:35 52° NNW 22:46:35 52° NNW 22:50:34 10° NNW
CZ-4C R/B 4.4 23:02:44 16° NE 23:02:44 16° NE 23:03:59 10° NE
Cosmos 2369 Rocket 3.4 23:00:18 36° N 23:00:18 36° N 23:03:43 10° NNE
USA 215 3.5 22:56:20 10° NE 23:02:47 63° NNW 23:09:11 10° WSW
Cosmos 2227 Rocket 4.4 23:08:20 10° N 23:10:52 16° NNE 23:10:52 16° NNE
Lacrosse 5 4.1 23:08:38 10° NW 23:12:19 20° N 23:13:00 19° N
CZ-3B DEB 4.2 23:19:04 10° NW 23:21:29 16° NNW 23:21:29 16° NNW
Terra 4.0 23:26:48 23° NNW 23:26:48 23° NNW 23:28:36 10° NNW
Cosmos 1943 Rocket 4.2 23:29:55 20° NNE 23:29:55 20° NNE 23:31:32 10° NNE
USA 267 4.0 23:38:11 45° WNW 23:38:11 45° WNW 23:42:39 10° NW
H-2A R/B 4.1 23:42:52 24° WNW 23:42:52 24° WNW 23:45:36 10° NNW
